Change the Weather History Date:

Thursday, May 22, 2014

  Actual Average Record
Temperature  
Mean Temperature 70 °F -  
Max Temperature 79 °F 76 °F 94 °F (1934)
Min Temperature 59 °F 49 °F 28 °F (2002)
Cooling Degree Days 4    
Growing Degree Days 20 (Base 50)    
Moisture  
Dew Point 58 °F    
Average Humidity 73    
Maximum Humidity 87    
Minimum Humidity 43    
Precipitation  
Precipitation 0.00 in - - ()
Sea Level Pressure  
Sea Level Pressure 29.92 in    
Wind  
Wind Speed 7 mph (WSW)    
Max Wind Speed 17 mph    
Max Gust Speed 23 mph    
Visibility 10 miles    
Events      
Averages and records for this station are not official NWS values.
T = Trace of Precipitation, MM = Missing Value Source: NWS Daily Summary

Daily Weather History Graph

Daily Weather History Graph

Search for Another Location

Airport or City:

Trip Planner

Search our weather history database for the weather conditions in past years. The results will help you decide how hot, cold, wet, or windy it might be!

Date:

Astronomy

May. 22, 2014 Rise Set
Actual Time 6:01 AM EDT 8:33 PM EDT
Civil Twilight 5:30 AM EDT 9:04 PM EDT
Nautical Twilight 4:52 AM EDT 9:43 PM EDT
Astronomical Twilight 4:09 AM EDT 10:26 PM EDT
Moon 2:17 AM EDT (5/22) 2:21 PM EDT (5/22)
Length of Visible Light 15h 33m
Length of Day
14h 32m
Last Quarter, 37% of the Moon is Illuminated
May 22
Last Quarter
May 28
New
Jun 5
First Quarter
Jun 13
Full
Jun 19
Last Quarter

Hourly Weather History & Observations

Time (EDT) Temp. Dew Point Humidity Pressure Visibility Wind Dir Wind Speed Gust Speed Precip Events Conditions
12:14 AM 69.1 °F 63.0 °F 81% 29.93 in 10.0 mi SW 4.6 mph - N/A   Overcast
12:50 AM 69.8 °F 62.6 °F 78% 29.93 in 10.0 mi SW 5.8 mph - N/A   Scattered Clouds
1:53 AM 66.9 °F 62.1 °F 84% 29.90 in 10.0 mi SW 5.8 mph - N/A   Clear
2:53 AM 66.0 °F 62.1 °F 87% 29.87 in 9.0 mi SW 5.8 mph - N/A   Mostly Cloudy
3:53 AM 66.0 °F 62.1 °F 87% 29.89 in 10.0 mi Calm Calm - N/A   Mostly Cloudy
4:20 AM 66.0 °F 62.1 °F 87% 29.93 in 9.0 mi Calm Calm - N/A   Overcast
4:53 AM 66.0 °F 61.0 °F 84% 29.88 in 10.0 mi SSW 5.8 mph - N/A   Overcast
5:31 AM 64.9 °F 60.1 °F 84% 29.92 in 10.0 mi SW 6.9 mph - N/A   Mostly Cloudy
5:53 AM 64.9 °F 59.0 °F 81% 29.89 in 10.0 mi SW 9.2 mph - N/A   Mostly Cloudy
6:53 AM 64.9 °F 59.0 °F 81% 29.91 in 10.0 mi WSW 8.1 mph - N/A   Overcast
7:53 AM 66.0 °F 59.0 °F 78% 29.92 in 10.0 mi WSW 6.9 mph - N/A   Overcast
8:53 AM 66.0 °F 60.1 °F 81% 29.92 in 10.0 mi WSW 8.1 mph - 0.00 in   Overcast
9:53 AM 66.9 °F 60.1 °F 79% 29.92 in 10.0 mi WSW 10.4 mph - N/A   Overcast
10:53 AM 69.1 °F 61.0 °F 75% 29.90 in 10.0 mi WSW 6.9 mph - N/A   Mostly Cloudy
11:53 AM 69.1 °F 60.1 °F 73% 29.91 in 10.0 mi WSW 10.4 mph - N/A   Overcast
12:53 PM 68.0 °F 61.0 °F 78% 29.91 in 10.0 mi WSW 6.9 mph - N/A   Overcast
1:53 PM 68.0 °F 62.1 °F 81% 29.92 in 5.0 mi WSW 10.4 mph - N/A   Haze
2:53 PM 72.0 °F 63.0 °F 73% 29.93 in 7.0 mi WSW 10.4 mph 18.4 mph N/A   Mostly Cloudy
3:00 PM 72.0 °F 62.1 °F 71% 29.96 in 7.0 mi West 8.1 mph - N/A   Scattered Clouds
3:53 PM 75.9 °F 60.1 °F 58% 29.91 in 10.0 mi West 8.1 mph 19.6 mph N/A   Scattered Clouds
4:53 PM 77.0 °F 55.9 °F 48% 29.90 in 10.0 mi WNW 17.3 mph 23.0 mph N/A   Mostly Cloudy
5:53 PM 77.0 °F 53.1 °F 43% 29.90 in 10.0 mi WNW 11.5 mph 20.7 mph N/A   Scattered Clouds
7:53 PM 72.0 °F 52.0 °F 49% 29.90 in 10.0 mi NNW 13.8 mph - N/A   Scattered Clouds
8:53 PM 66.9 °F 51.1 °F 57% 29.93 in 10.0 mi NNW 6.9 mph - N/A   Clear
9:53 PM 64.9 °F 48.9 °F 56% 29.96 in 10.0 mi North 9.2 mph - N/A   Clear
10:53 PM 62.1 °F 48.0 °F 60% 29.98 in 10.0 mi North 4.6 mph - N/A   Partly Cloudy
11:53 PM 59.0 °F 46.9 °F 64% 29.99 in 10.0 mi NE 3.5 mph - N/A   Clear